Location: Newark
(37.3186°N, 13.6631°E)
Time: 23:37:00
(UTC+00:00)

ISS - Pass Details

Date: 23 November 2019
Orbit: 411 x 421 km, 51.6° (Epoch: 16 December)

Event Time Altitude Azimuth Distance (km) Brightness Sun altitude
Rises 18:11:10 0° 271° (W) 2,353 1.3 -27.7°
Reaches altitude 10° 18:13:50 10° 294° (WNW) 1,495 -0.2 -28.2°
Enters shadow 18:14:39 13° 307° (NW) 1,309 -0.7 -28.4°
